Torna al catalogo

COSMOS 1275 DEB

AttivoPO
NORAD 42144·DEBRIS·🇷🇺 Russia

Lanciato Jun 4, 1981 da Plesetsk Cosmodrome

Loading…

Prossimi Passaggi (prossime 24 ore)

TLE

AggiornatoSource: Space-Track

Epoca: Sep 11, 2026, 17:16 UTC

1 42144U 81053RG  26254.71958787  .00000651  00000-0  51644-3 0  9998
2 42144  82.8046 237.4522 0057957 187.4173 348.4674 13.89162459647601

Traccia COSMOS 1275 DEB in tempo reale con AllMySat

Download on the App Store